Regional Weather Roundup
Issued by NWS Green Bay, WI

Home | Current Version | Previous Version | Text Only | Print | Product List | Glossary On
Versions: 1 2 3 4 5 6 7 8 9 10 11 12 13 14 15 16 17 18 19 20 21 22 23 24 25 26 27 28 29 30 31 32 33 34 35 36 37 38 39 40 41 42 43 44 45 46 47 48 49 50
176
ASUS43 KGRB 190711
RWRGRB

NORTH-CENTRAL AND NORTHEAST WISCONSIN REGIONAL WEATHER ROUNDUP
NATIONAL WEATHER SERVICE GREEN BAY WI
100 AM CST SUN FEB 19 2017

WIZ005-009-010>012-018-019-190800-
NORTH CENTRAL WISCONSIN

CITY           SKY/WX    TMP DP  RH WIND       PRES   REMARKS
IRONWOOD       PTCLDY    41  29  62 SW6       29.84R
MANITOWISH WTR MOCLDY    33  28  83 W3        29.83R
ARBOR VITAE    CLOUDY    39  31  73 W5        29.84R
EAGLE RIVER    CLOUDY    40  27  58 W6        29.82R
LAND O LAKES   PTCLDY    40  27  59 W3        29.82R
RHINELANDER    CLOUDY    42  32  67 W12       29.84R
PHILLIPS       CLEAR     35  32  88 CALM      29.84R
ANTIGO         CLOUDY    36  31  82 W6        29.83R
TOMAHAWK       PTCLDY    40  32  70 W5        29.85R
MERRILL        NOT AVBL
$$

WIZ013-073-190800-
NORTHEAST WISCONSIN

CITY           SKY/WX    TMP DP  RH WIND       PRES   REMARKS
IRON MOUNTAIN  PTCLDY    44  26  49 NW8       29.77R
MARINETTE      CLOUDY    39  29  67 CALM      29.79F
OCONTO         PTCLDY    35  28  76 CALM      29.79F
$$

WIZ017-030-035>037-045-190800-
CENTRAL WISCONSIN

CITY           SKY/WX    TMP DP  RH WIND       PRES   REMARKS
MEDFORD        CLOUDY    39  33  77 W7        29.86R
WAUSAU         PTCLDY    41  32  70 NW6       29.83R
MOSINEE        PTCLDY    37  32  81 W6        29.85R
MARSHFIELD     CLOUDY    40  32  73 W5        29.84R
WISC RAPIDS    PTCLDY    33  29  85 CALM      29.86R
STEVENS POINT  CLOUDY    37  32  79 CALM      29.85R
WAUPACA        CLOUDY    43  32  64 CALM      29.84S
SHAWANO        CLOUDY    42  32  67 SW5       29.82S
CLINTONVILLE   PTCLDY    37  32  81 W3        29.82S
WAUTOMA        CLOUDY    35  30  82 SW3       29.86R
$$

WIZ038-039-048-051-190800-
FOX VALLEY

CITY           SKY/WX    TMP DP  RH WIND       PRES   REMARKS
NWS GREEN BAY  MOCLDY    42  33  70 W5        29.81F
APPLETON       CLEAR     37  28  70 W10       29.81S
OSHKOSH        CLOUDY    39  29  67 SW3       29.83S
FOND DU LAC    PTCLDY    36  27  69 S5        29.84S
$$

WIZ022-050-052-190800-
EAST CENTRAL WISCONSIN

CITY           SKY/WX    TMP DP  RH WIND       PRES   REMARKS
EPHRAIM        FAIR      40  31  68 W7        29.78S
WASHINGTON ISL FAIR      37  29  75 W5        29.78S
STURGEON BAY   MOCLDY    43  31  62 W8        29.80F
MANITOWOC      MOCLDY    46  31  55 MISG      29.82S
SHEBOYGAN      CLOUDY    43  29  57 SW6       29.84R
$$

LMZ563-521-522-541>543-190800-
LAKESHORE

STATION/POSITION TIME  TEMP    WIND        PRES    VSBY  WAVE
                       AIR SEA DIR/SP/G                  HT/PER
                 (UTC) (F)     (DEG/KT/KT) (MB)    (MI)  (FT/S)
SHEBOYGAN LKSHOR 0700   48     270/  8/  9 1010.3R
KEWAUNEE LKSHORE 0648   46     280/  2/  5 1008.9S
NORTHPORT PIER   0640   45     260/  2/  7 1008.5S
SISTER BAY LKSHO 0605   44     260/ 14/ 16   N/A
CHAMBERS ISLAND  0640   41     200/  5/  6 1008.5S
MENOMINEE LKSHOR 0648   43     250/  7/  9 1007.9F
$$




USA.gov is the U.S. government's official web portal to all federal, state and local government web resources and services.